Regional Weather Roundup
Issued by NWS

Home | Current Version | Previous Version | Text Only | Print | Product List | Glossary On
Versions: 1 2 3 4 5 6 7 8 9 10 11 12 13 14 15 16 17 18 19 20 21 22 23 24 25 26 27
000
ASCA42 TJSJ 270510
RWRPR
PUERTO RICO/U.S. VIRGIN ISLANDS HOURLY WEATHER ROUNDUP
NATIONAL WEATHER SERVICE SAN JUAN PR
100 AM AST MON MAR 27 2017

PRZ001>002-007>008-010-270600-
PUERTO RICO

CITY           SKY/WX    TMP DP  RH WIND       PRES   REMARKS
SAN JUAN LMM   CLEAR     75  73  94 S3        29.93F
CEIBA          PTCLDY    75  73  94 SW5       29.95F
$$

VIZ001>002-270600-
U.S. VIRGIN ISLANDS

CITY           SKY/WX    TMP DP  RH WIND       PRES   REMARKS
CHARLOTTE AMA  CLEAR     77  75  94 S7        29.93F
CHRISTIANSTED  PTCLDY    79  72  78 SE7       29.95F
$$

HOURLY WEATHER ROUNDUP FOR THE NEWS MEDIA

CITY           SKY/WX    TMP DP  RH WIND       PRES   REMARKS
ORLANDO        CLEAR     65  59  81 SE3       30.11F
NEW YORK       DRIZZLE   40  39  97 NE9       30.30F FOG     WCI  34
NEWARK         DRIZZLE   40  39  97 NE7       30.29F FOG
CHICAGO        CLOUDY    52  49  89 W9        29.87F
HARTFORD       CLOUDY    39  29  67 E5        30.36F
BOSTON         CLOUDY    37  32  82 SE8       30.39F WCI  31
DALLAS         MOCLDY    73  59  61 S16       29.77F
PHILADELPHIA   CLOUDY    42  40  92 NE7       30.24F FOG
LOS ANGELES    PTCLDY    59  52  77 W15       30.04S
WASHINGTON DC  DRZL/FOG  46  45  96 E5        30.18F VSB 1



USA.gov is the U.S. government's official web portal to all federal, state and local government web resources and services.